Zurück zum Katalog

TITAN 3C TRANSTAGE DEB

LostHEO
NORAD 28840·DEBRIS·🇺🇸 United States

Gestartet Dec 21, 1965 von Cape Canaveral Space Force Station

Loading…

Nächste Überflüge (nächste 24 Stunden)

TLE

VeraltetSource: Space-Track

Epoche: Apr 5, 2026, 02:35 UTC

1 28840U 65108CS  26095.10770307  .00001841  00000-0  93909-2 0  9995
2 28840  26.7953 326.2530 6690005 206.2673  93.0969  2.89249153113788

Verfolge TITAN 3C TRANSTAGE DEB in Echtzeit mit AllMySat

Download on the App Store